Voltar ao catálogo

STARLINK-38114

AtivoComunicaçõesVLEO
NORAD 100017·PAYLOAD·🇺🇸 United States

Lançado Jul 14, 2026 de Vandenberg Space Force Base

Loading…

Próximas Passagens (próximas 24 horas)

TLE

AtualizadoSource: Space-Track

Época: Sep 14, 2026, 14:20 UTC

1 A0017U 26160S   26257.59760792  .00212626  00000-0  12406-2 0  9994
2 A0017  70.0020 211.5751 0003620 268.9051  91.1734 15.77641991 11066

Acompanhe STARLINK-38114 em tempo real com AllMySat

Download on the App Store